When you browse on this site, cookies collect data to enhance your experience and personalize the content and advertising you see.
Visit our Privacy Policy to learn more. By continuing to use the site, you agree to this use of cookies and data.
  • In Germany
  • List of Countries
  • For 7 days
  • Water Temperature
  • Weather Map
  • Weather Widgets
  • user-avatar
    Login

    Hourly Weather Namibe

    Today, 31 May, Sunday

    Time Temperature Precipitation Wind Pressure Humidity
    00:00 +25°C° 0 mm 2 mps 759 mmHg 54%
    01:00 +25°C° 0 mm 2 mps 759 mmHg 52%
    02:00 +24°C° 0 mm 3 mps 759 mmHg 53%
    03:00 +24°C° 0 mm 3 mps 758 mmHg 54%
    04:00 +23°C° 0 mm 4 mps 758 mmHg 54%
    05:00 +24°C° 0 mm 3 mps 759 mmHg 53%
    06:00 +24°C° 0 mm 3 mps 759 mmHg 51%
    07:00 +25°C° 0 mm 3 mps 759 mmHg 47%
    08:00 +28°C° 0 mm 3 mps 759 mmHg 39%
    09:00 +30°C° 0 mm 2 mps 759 mmHg 31%
    10:00 +34°C° 0 mm 2 mps 759 mmHg 23%
    11:00 +35°C° 0 mm 3 mps 759 mmHg 24%
    12:00 +35°C° 0 mm 3 mps 758 mmHg 26%
    13:00 +36°C° 0 mm 3 mps 758 mmHg 30%
    14:00 +35°C° 0 mm 4 mps 757 mmHg 33%
    15:00 +34°C° 0 mm 4 mps 757 mmHg 37%
    16:00 +33°C° 0 mm 4 mps 756 mmHg 41%
    17:00 +30°C° 0 mm 4 mps 757 mmHg 48%
    18:00 +28°C° 0 mm 3 mps 758 mmHg 55%
    19:00 +26°C° 0 mm 3 mps 759 mmHg 63%
    20:00 +26°C° 0 mm 3 mps 759 mmHg 61%
    21:00 +26°C° 0 mm 2 mps 759 mmHg 58%
    22:00 +26°C° 0 mm 2 mps 759 mmHg 56%
    23:00 +26°C° 0 mm 2 mps 759 mmHg 54%

    Tomorrow, 1 June, Monday

    Time Temperature Precipitation Wind Pressure Humidity
    00:00 +26°C° 0 mm 2 mps 759 mmHg 52%
    01:00 +25°C° 0 mm 2 mps 759 mmHg 50%
    02:00 +25°C° 0 mm 2 mps 759 mmHg 49%
    03:00 +25°C° 0 mm 3 mps 759 mmHg 49%
    04:00 +25°C° 0 mm 3 mps 758 mmHg 48%
    05:00 +25°C° 0 mm 3 mps 759 mmHg 47%
    06:00 +25°C° 0 mm 3 mps 759 mmHg 46%
    07:00 +26°C° 0 mm 3 mps 759 mmHg 46%
    08:00 +28°C° 0 mm 2 mps 759 mmHg 38%
    09:00 +31°C° 0 mm 2 mps 759 mmHg 31%
    10:00 +35°C° 0 mm 2 mps 759 mmHg 23%
    11:00 +36°C° 0 mm 3 mps 758 mmHg 25%
    12:00 +36°C° 0 mm 3 mps 758 mmHg 27%
    13:00 +36°C° 0 mm 4 mps 758 mmHg 28%
    14:00 +35°C° 0 mm 4 mps 757 mmHg 33%
    15:00 +33°C° 0 mm 4 mps 757 mmHg 38%
    16:00 +32°C° 0 mm 5 mps 757 mmHg 43%
    17:00 +30°C° 0 mm 4 mps 757 mmHg 52%
    18:00 +28°C° 0 mm 3 mps 758 mmHg 60%
    19:00 +27°C° 0 mm 2 mps 758 mmHg 68%
    20:00 +26°C° 0 mm 2 mps 759 mmHg 70%
    21:00 +26°C° 0 mm 2 mps 759 mmHg 71%
    22:00 +26°C° 0 mm 2 mps 759 mmHg 73%
    23:00 +26°C° 0 mm 2 mps 759 mmHg 70%

    Day after tomorrow, 2 June, Tuesday

    Time Temperature Precipitation Wind Pressure Humidity
    00:00 +26°C° 0 mm 2 mps 759 mmHg 67%
    01:00 +25°C° 0 mm 1 mps 760 mmHg 64%
    02:00 +25°C° 0 mm 2 mps 759 mmHg 63%
    03:00 +25°C° 0 mm 2 mps 759 mmHg 62%
    04:00 +25°C° 0 mm 2 mps 759 mmHg 61%
    05:00 +25°C° 0 mm 2 mps 759 mmHg 60%
    06:00 +25°C° 0 mm 2 mps 759 mmHg 59%
    07:00 +25°C° 0 mm 2 mps 760 mmHg 59%
    08:00 +27°C° 0 mm 2 mps 760 mmHg 52%
    09:00 +29°C° 0 mm 2 mps 760 mmHg 45%
    10:00 +31°C° 0 mm 2 mps 760 mmHg 38%
    11:00 +32°C° 0 mm 2 mps 759 mmHg 37%
    12:00 +33°C° 0 mm 3 mps 759 mmHg 37%
    13:00 +34°C° 0 mm 4 mps 758 mmHg 36%
    14:00 +33°C° 0 mm 4 mps 758 mmHg 41%
    15:00 +32°C° 0 mm 4 mps 757 mmHg 45%
    16:00 +29°C° 0 mm 4 mps 757 mmHg 49%
    17:00 +28°C° 0 mm 3 mps 757 mmHg 56%
    18:00 +27°C° 0 mm 3 mps 758 mmHg 64%
    19:00 +26°C° 0 mm 2 mps 758 mmHg 71%
    20:00 +25°C° 0 mm 2 mps 759 mmHg 70%
    21:00 +25°C° 0 mm 3 mps 759 mmHg 69%
    22:00 +25°C° 0 mm 3 mps 759 mmHg 68%
    23:00 +26°C° 0 mm 2 mps 759 mmHg 64%

    3 June, Wednesday

    Time Temperature Precipitation Wind Pressure Humidity
    00:00 +26°C° 0 mm 2 mps 759 mmHg 60%
    01:00 +26°C° 0 mm 1 mps 759 mmHg 56%
    02:00 +26°C° 0 mm 2 mps 758 mmHg 58%
    03:00 +25°C° 0 mm 2 mps 758 mmHg 60%
    04:00 +25°C° 0 mm 2 mps 758 mmHg 63%
    05:00 +25°C° 0 mm 2 mps 758 mmHg 60%
    06:00 +25°C° 0 mm 2 mps 758 mmHg 58%
    07:00 +25°C° 0 mm 2 mps 758 mmHg 55%
    08:00 +27°C° 0 mm 2 mps 758 mmHg 49%
    09:00 +29°C° 0 mm 2 mps 758 mmHg 44%
    10:00 +30°C° 0 mm 2 mps 758 mmHg 38%
    11:00 +31°C° 0 mm 3 mps 758 mmHg 36%
    12:00 +33°C° 0 mm 3 mps 757 mmHg 35%
    13:00 +34°C° 0 mm 4 mps 757 mmHg 33%
    14:00 +33°C° 0 mm 4 mps 756 mmHg 37%
    15:00 +32°C° 0 mm 4 mps 756 mmHg 41%
    16:00 +30°C° 0 mm 4 mps 756 mmHg 45%
    17:00 +29°C° 0 mm 4 mps 756 mmHg 51%
    18:00 +27°C° 0 mm 4 mps 757 mmHg 58%
    19:00 +26°C° 0 mm 3 mps 757 mmHg 65%
    20:00 +25°C° 0 mm 3 mps 758 mmHg 64%
    21:00 +25°C° 0 mm 2 mps 758 mmHg 62%
    22:00 +25°C° 0 mm 2 mps 758 mmHg 61%
    23:00 +25°C° 0 mm 2 mps 758 mmHg 60%

    4 June, Thursday

    Time Temperature Precipitation Wind Pressure Humidity
    00:00 +25°C° 0 mm 1 mps 758 mmHg 59%
    01:00 +25°C° 0 mm 1 mps 758 mmHg 59%
    02:00 +24°C° 0 mm 2 mps 758 mmHg 60%
    03:00 +24°C° 0 mm 2 mps 758 mmHg 61%
    04:00 +24°C° 0 mm 2 mps 757 mmHg 62%
    05:00 +24°C° 0 mm 2 mps 758 mmHg 59%
    06:00 +24°C° 0 mm 2 mps 758 mmHg 57%
    07:00 +24°C° 0 mm 1 mps 758 mmHg 55%
    08:00 +26°C° 0 mm 2 mps 758 mmHg 49%
    09:00 +28°C° 0 mm 2 mps 758 mmHg 43%
    10:00 +31°C° 0 mm 2 mps 759 mmHg 38%
    11:00 +31°C° 0 mm 3 mps 758 mmHg 38%
    12:00 +33°C° 0 mm 3 mps 757 mmHg 38%
    13:00 +33°C° 0 mm 3 mps 757 mmHg 39%
    14:00 +32°C° 0 mm 4 mps 757 mmHg 42%
    15:00 +30°C° 0 mm 4 mps 756 mmHg 45%
    16:00 +29°C° 0 mm 4 mps 756 mmHg 48%
    17:00 +28°C° 0 mm 3 mps 757 mmHg 55%
    18:00 +27°C° 0 mm 3 mps 757 mmHg 62%
    19:00 +25°C° 0 mm 2 mps 758 mmHg 69%
    20:00 +25°C° 0 mm 2 mps 758 mmHg 68%
    21:00 +25°C° 0 mm 2 mps 758 mmHg 68%
    22:00 +25°C° 0 mm 2 mps 759 mmHg 68%
    23:00 +25°C° 0 mm 2 mps 759 mmHg 63%

    5 June, Friday

    Time Temperature Precipitation Wind Pressure Humidity
    00:00 +25°C° 0 mm 2 mps 759 mmHg 58%
    01:00 +25°C° 0 mm 1 mps 759 mmHg 53%
    02:00 +25°C° 0 mm 2 mps 758 mmHg 54%
    03:00 +25°C° 0 mm 2 mps 758 mmHg 55%
    04:00 +24°C° 0 mm 2 mps 758 mmHg 55%
    05:00 +25°C° 0 mm 2 mps 758 mmHg 54%
    06:00 +25°C° 0 mm 2 mps 758 mmHg 53%
    07:00 +25°C° 0 mm 2 mps 759 mmHg 52%
    08:00 +28°C° 0 mm 2 mps 759 mmHg 44%
    09:00 +30°C° 0 mm 3 mps 759 mmHg 36%
    10:00 +34°C° 0 mm 3 mps 759 mmHg 28%
    11:00 +35°C° 0 mm 3 mps 758 mmHg 27%
    12:00 +36°C° 0 mm 4 mps 758 mmHg 27%
    13:00 +37°C° 0 mm 4 mps 757 mmHg 26%
    14:00 +35°C° 0 mm 4 mps 757 mmHg 31%
    15:00 +34°C° 0 mm 4 mps 757 mmHg 35%
    16:00 +33°C° 0 mm 4 mps 756 mmHg 39%
    17:00 +30°C° 0 mm 4 mps 757 mmHg 47%
    18:00 +28°C° 0 mm 3 mps 757 mmHg 55%
    19:00 +26°C° 0 mm 3 mps 758 mmHg 64%
    20:00 +26°C° 0 mm 3 mps 758 mmHg 61%
    21:00 +25°C° 0 mm 3 mps 759 mmHg 59%
    22:00 +25°C° 0 mm 3 mps 759 mmHg 56%
    23:00 +26°C° 0 mm 3 mps 759 mmHg 52%
    Show more